﻿測定場所 (Monitoring sites),日付 (Measurement date),時間 (Measurement time),線量率 最大値 (max) μGy/h,線量率 最小値 (min) μGy/h,線量率 平均値 (average) μGy/h,
江東 (Koto),2021-01-24,23:01～24:00,0.0423,0.0382,0.0400,
江東 (Koto),2021-01-24,22:01～23:00,0.0434,0.0393,0.0414,
江東 (Koto),2021-01-24,21:01～22:00,0.0427,0.0379,0.0407,
江東 (Koto),2021-01-24,20:01～21:00,0.0432,0.0378,0.0410,
江東 (Koto),2021-01-24,19:01～20:00,0.0433,0.0378,0.0406,
江東 (Koto),2021-01-24,18:01～19:00,0.0419,0.0379,0.0399,
江東 (Koto),2021-01-24,17:01～18:00,0.0409,0.0365,0.0387,
江東 (Koto),2021-01-24,16:01～17:00,0.0401,0.0349,0.0380,
江東 (Koto),2021-01-24,15:01～16:00,0.0396,0.0355,0.0379,
江東 (Koto),2021-01-24,14:01～15:00,0.0395,0.0350,0.0379,
江東 (Koto),2021-01-24,13:01～14:00,0.0411,0.0357,0.0387,
江東 (Koto),2021-01-24,12:01～13:00,0.0436,0.0360,0.0405,
江東 (Koto),2021-01-24,11:01～12:00,0.0467,0.0402,0.0432,
江東 (Koto),2021-01-24,10:01～11:00,0.0461,0.0409,0.0435,
江東 (Koto),2021-01-24,09:01～10:00,0.0458,0.0416,0.0439,
江東 (Koto),2021-01-24,08:01～09:00,0.0443,0.0386,0.0418,
江東 (Koto),2021-01-24,07:01～08:00,0.0421,0.0381,0.0404,
江東 (Koto),2021-01-24,06:01～07:00,0.0431,0.0378,0.0409,
江東 (Koto),2021-01-24,05:01～06:00,0.0449,0.0403,0.0422,
江東 (Koto),2021-01-24,04:01～05:00,0.0471,0.0408,0.0437,
江東 (Koto),2021-01-24,03:01～04:00,0.0459,0.0407,0.0442,
江東 (Koto),2021-01-24,02:01～03:00,0.0462,0.0418,0.0443,
江東 (Koto),2021-01-24,01:01～02:00,0.0460,0.0411,0.0438,
江東 (Koto),2021-01-24,00:01～01:00,0.0481,0.0429,0.0451,
江東 (Koto),2021-01-23,23:01～24:00,0.0502,0.0436,0.0469,
江東 (Koto),2021-01-23,22:01～23:00,0.0536,0.0464,0.0507,
江東 (Koto),2021-01-23,21:01～22:00,0.0535,0.0462,0.0495,
江東 (Koto),2021-01-23,20:01～21:00,0.0485,0.0446,0.0467,
江東 (Koto),2021-01-23,19:01～20:00,0.0497,0.0443,0.0465,
江東 (Koto),2021-01-23,18:01～19:00,0.0485,0.0434,0.0463,
江東 (Koto),2021-01-23,17:01～18:00,0.0476,0.0438,0.0456,
江東 (Koto),2021-01-23,16:01～17:00,0.0483,0.0430,0.0459,
江東 (Koto),2021-01-23,15:01～16:00,0.0499,0.0444,0.0475,
江東 (Koto),2021-01-23,14:01～15:00,0.0499,0.0443,0.0466,
江東 (Koto),2021-01-23,13:01～14:00,0.0506,0.0443,0.0473,
江東 (Koto),2021-01-23,12:01～13:00,0.0480,0.0439,0.0461,
江東 (Koto),2021-01-23,11:01～12:00,0.0498,0.0447,0.0475,
江東 (Koto),2021-01-23,10:01～11:00,0.0521,0.0467,0.0491,
江東 (Koto),2021-01-23,09:01～10:00,0.0505,0.0402,0.0451,
江東 (Koto),2021-01-23,08:01～09:00,0.0419,0.0373,0.0392,
江東 (Koto),2021-01-23,07:01～08:00,0.0404,0.0368,0.0385,
江東 (Koto),2021-01-23,06:01～07:00,0.0408,0.0364,0.0386,
江東 (Koto),2021-01-23,05:01～06:00,0.0410,0.0364,0.0386,
江東 (Koto),2021-01-23,04:01～05:00,0.0408,0.0364,0.0385,
江東 (Koto),2021-01-23,03:01～04:00,0.0411,0.0370,0.0389,
江東 (Koto),2021-01-23,02:01～03:00,0.0416,0.0361,0.0386,
江東 (Koto),2021-01-23,01:01～02:00,0.0414,0.0360,0.0387,
江東 (Koto),2021-01-23,00:01～01:00,0.0404,0.0365,0.0386,
江東 (Koto),2021-01-22,23:01～24:00,0.0416,0.0364,0.0388,
江東 (Koto),2021-01-22,22:01～23:00,0.0417,0.0361,0.0390,
江東 (Koto),2021-01-22,21:01～22:00,0.0408,0.0364,0.0388,
江東 (Koto),2021-01-22,20:01～21:00,0.0408,0.0367,0.0388,
江東 (Koto),2021-01-22,19:01～20:00,0.0412,0.0367,0.0391,
江東 (Koto),2021-01-22,18:01～19:00,0.0409,0.0360,0.0387,
江東 (Koto),2021-01-22,17:01～18:00,0.0407,0.0360,0.0384,
江東 (Koto),2021-01-22,16:01～17:00,0.0405,0.0365,0.0387,
江東 (Koto),2021-01-22,15:01～16:00,0.0405,0.0362,0.0387,
江東 (Koto),2021-01-22,14:01～15:00,0.0426,0.0370,0.0390,
江東 (Koto),2021-01-22,13:01～14:00,0.0412,0.0366,0.0391,
江東 (Koto),2021-01-22,12:01～13:00,0.0409,0.0368,0.0390,
江東 (Koto),2021-01-22,11:01～12:00,0.0416,0.0374,0.0393,
江東 (Koto),2021-01-22,10:01～11:00,0.0409,0.0362,0.0390,
江東 (Koto),2021-01-22,09:01～10:00,0.0417,0.0374,0.0392,
江東 (Koto),2021-01-22,08:01～09:00,0.0414,0.0370,0.0393,
江東 (Koto),2021-01-22,07:01～08:00,0.0413,0.0372,0.0394,
江東 (Koto),2021-01-22,06:01～07:00,0.0414,0.0368,0.0393,
江東 (Koto),2021-01-22,05:01～06:00,0.0415,0.0367,0.0393,
江東 (Koto),2021-01-22,04:01～05:00,0.0406,0.0371,0.0387,
江東 (Koto),2021-01-22,03:01～04:00,0.0417,0.0366,0.0393,
江東 (Koto),2021-01-22,02:01～03:00,0.0408,0.0371,0.0389,
江東 (Koto),2021-01-22,01:01～02:00,0.0410,0.0366,0.0389,
江東 (Koto),2021-01-22,00:01～01:00,0.0413,0.0367,0.0387,
江東 (Koto),2021-01-21,23:01～24:00,0.0421,0.0363,0.0388,
江東 (Koto),2021-01-21,22:01～23:00,0.0410,0.0365,0.0383,
江東 (Koto),2021-01-21,21:01～22:00,0.0409,0.0361,0.0387,
江東 (Koto),2021-01-21,20:01～21:00,0.0409,0.0367,0.0386,
江東 (Koto),2021-01-21,19:01～20:00,0.0410,0.0366,0.0387,
江東 (Koto),2021-01-21,18:01～19:00,0.0405,0.0360,0.0385,
江東 (Koto),2021-01-21,17:01～18:00,0.0409,0.0361,0.0389,
江東 (Koto),2021-01-21,16:01～17:00,0.0412,0.0360,0.0386,
江東 (Koto),2021-01-21,15:01～16:00,0.0422,0.0363,0.0386,
江東 (Koto),2021-01-21,14:01～15:00,0.0413,0.0369,0.0385,
江東 (Koto),2021-01-21,13:01～14:00,0.0413,0.0366,0.0385,
江東 (Koto),2021-01-21,12:01～13:00,0.0416,0.0363,0.0386,
江東 (Koto),2021-01-21,11:01～12:00,0.0405,0.0359,0.0385,
江東 (Koto),2021-01-21,10:01～11:00,0.0413,0.0366,0.0387,
江東 (Koto),2021-01-21,09:01～10:00,0.0406,0.0362,0.0383,
江東 (Koto),2021-01-21,08:01～09:00,0.0405,0.0364,0.0386,
江東 (Koto),2021-01-21,07:01～08:00,0.0405,0.0369,0.0390,
江東 (Koto),2021-01-21,06:01～07:00,0.0407,0.0371,0.0388,
江東 (Koto),2021-01-21,05:01～06:00,0.0406,0.0364,0.0386,
江東 (Koto),2021-01-21,04:01～05:00,0.0410,0.0364,0.0387,
江東 (Koto),2021-01-21,03:01～04:00,0.0412,0.0371,0.0388,
江東 (Koto),2021-01-21,02:01～03:00,0.0410,0.0369,0.0390,
江東 (Koto),2021-01-21,01:01～02:00,0.0410,0.0357,0.0388,
江東 (Koto),2021-01-21,00:01～01:00,0.0400,0.0357,0.0382,
江東 (Koto),2021-01-20,23:01～24:00,0.0405,0.0366,0.0385,
江東 (Koto),2021-01-20,22:01～23:00,0.0404,0.0360,0.0385,
江東 (Koto),2021-01-20,21:01～22:00,0.0405,0.0367,0.0384,
江東 (Koto),2021-01-20,20:01～21:00,0.0402,0.0364,0.0384,
江東 (Koto),2021-01-20,19:01～20:00,0.0401,0.0365,0.0385,
江東 (Koto),2021-01-20,18:01～19:00,0.0400,0.0357,0.0383,
江東 (Koto),2021-01-20,17:01～18:00,0.0408,0.0358,0.0383,
江東 (Koto),2021-01-20,16:01～17:00,0.0409,0.0364,0.0387,
江東 (Koto),2021-01-20,15:01～16:00,0.0409,0.0357,0.0385,
江東 (Koto),2021-01-20,14:01～15:00,0.0405,0.0363,0.0384,
江東 (Koto),2021-01-20,13:01～14:00,0.0409,0.0359,0.0381,
江東 (Koto),2021-01-20,12:01～13:00,0.0405,0.0357,0.0382,
江東 (Koto),2021-01-20,11:01～12:00,0.0418,0.0360,0.0382,
江東 (Koto),2021-01-20,10:01～11:00,0.0403,0.0360,0.0382,
江東 (Koto),2021-01-20,09:01～10:00,0.0396,0.0358,0.0380,
江東 (Koto),2021-01-20,08:01～09:00,0.0409,0.0355,0.0384,
江東 (Koto),2021-01-20,07:01～08:00,0.0410,0.0364,0.0384,
江東 (Koto),2021-01-20,06:01～07:00,0.0409,0.0363,0.0387,
江東 (Koto),2021-01-20,05:01～06:00,0.0412,0.0354,0.0384,
江東 (Koto),2021-01-20,04:01～05:00,0.0405,0.0355,0.0386,
江東 (Koto),2021-01-20,03:01～04:00,0.0412,0.0363,0.0385,
江東 (Koto),2021-01-20,02:01～03:00,0.0422,0.0359,0.0384,
江東 (Koto),2021-01-20,01:01～02:00,0.0413,0.0365,0.0386,
江東 (Koto),2021-01-20,00:01～01:00,0.0412,0.0366,0.0389,
江東 (Koto),2021-01-19,23:01～24:00,0.0410,0.0360,0.0388,
江東 (Koto),2021-01-19,22:01～23:00,0.0416,0.0367,0.0387,
江東 (Koto),2021-01-19,21:01～22:00,0.0408,0.0357,0.0386,
江東 (Koto),2021-01-19,20:01～21:00,0.0408,0.0358,0.0386,
江東 (Koto),2021-01-19,19:01～20:00,0.0408,0.0354,0.0385,
江東 (Koto),2021-01-19,18:01～19:00,0.0412,0.0364,0.0384,
江東 (Koto),2021-01-19,17:01～18:00,0.0415,0.0367,0.0386,
江東 (Koto),2021-01-19,16:01～17:00,0.0398,0.0360,0.0381,
江東 (Koto),2021-01-19,15:01～16:00,0.0406,0.0362,0.0385,
江東 (Koto),2021-01-19,14:01～15:00,0.0412,0.0363,0.0386,
江東 (Koto),2021-01-19,13:01～14:00,0.0402,0.0368,0.0386,
江東 (Koto),2021-01-19,12:01～13:00,0.0416,0.0362,0.0385,
江東 (Koto),2021-01-19,11:01～12:00,0.0412,0.0367,0.0386,
江東 (Koto),2021-01-19,10:01～11:00,0.0405,0.0358,0.0385,
江東 (Koto),2021-01-19,09:01～10:00,0.0409,0.0307,0.0384,
江東 (Koto),2021-01-19,08:01～09:00,0.0407,0.0360,0.0385,
江東 (Koto),2021-01-19,07:01～08:00,0.0409,0.0368,0.0387,
江東 (Koto),2021-01-19,06:01～07:00,0.0412,0.0367,0.0387,
江東 (Koto),2021-01-19,05:01～06:00,0.0405,0.0368,0.0386,
江東 (Koto),2021-01-19,04:01～05:00,0.0402,0.0364,0.0386,
江東 (Koto),2021-01-19,03:01～04:00,0.0405,0.0360,0.0389,
江東 (Koto),2021-01-19,02:01～03:00,0.0401,0.0367,0.0386,
江東 (Koto),2021-01-19,01:01～02:00,0.0407,0.0364,0.0386,
江東 (Koto),2021-01-19,00:01～01:00,0.0409,0.0367,0.0386,
江東 (Koto),2021-01-18,23:01～24:00,0.0405,0.0363,0.0386,
江東 (Koto),2021-01-18,22:01～23:00,0.0401,0.0364,0.0383,
江東 (Koto),2021-01-18,21:01～22:00,0.0418,0.0364,0.0389,
江東 (Koto),2021-01-18,20:01～21:00,0.0407,0.0364,0.0383,
江東 (Koto),2021-01-18,19:01～20:00,0.0407,0.0367,0.0384,
江東 (Koto),2021-01-18,18:01～19:00,0.0409,0.0367,0.0386,
江東 (Koto),2021-01-18,17:01～18:00,0.0409,0.0367,0.0388,
江東 (Koto),2021-01-18,16:01～17:00,0.0400,0.0354,0.0381,
江東 (Koto),2021-01-18,15:01～16:00,0.0411,0.0366,0.0387,
江東 (Koto),2021-01-18,14:01～15:00,0.0412,0.0363,0.0387,
江東 (Koto),2021-01-18,13:01～14:00,0.0409,0.0360,0.0387,
江東 (Koto),2021-01-18,12:01～13:00,0.0408,0.0367,0.0387,
江東 (Koto),2021-01-18,11:01～12:00,0.0413,0.0367,0.0387,
江東 (Koto),2021-01-18,10:01～11:00,0.0414,0.0367,0.0386,
江東 (Koto),2021-01-18,09:01～10:00,0.0416,0.0367,0.0387,
江東 (Koto),2021-01-18,08:01～09:00,0.0410,0.0368,0.0390,
江東 (Koto),2021-01-18,07:01～08:00,0.0405,0.0371,0.0388,
江東 (Koto),2021-01-18,06:01～07:00,0.0419,0.0356,0.0389,
江東 (Koto),2021-01-18,05:01～06:00,0.0417,0.0369,0.0390,
江東 (Koto),2021-01-18,04:01～05:00,0.0414,0.0363,0.0388,
江東 (Koto),2021-01-18,03:01～04:00,0.0411,0.0361,0.0388,
江東 (Koto),2021-01-18,02:01～03:00,0.0411,0.0370,0.0388,
江東 (Koto),2021-01-18,01:01～02:00,0.0417,0.0353,0.0389,
江東 (Koto),2021-01-18,00:01～01:00,0.0415,0.0373,0.0391,
